Location: Appeville
(49.3218°N, 1.3427°W)
Time: 16:20:48
(UTC+00:00)

COSMO-SKYMED 1 - Pass Details

Date: 08 December 2019
Orbit: 621 x 623 km, 97.9° (Epoch: 27 January)

Event Time Altitude Azimuth Distance (km) Brightness Sun altitude
Rises 05:06:02 0° 163° (SSE) 2,893 6.3 -25.2°
Reaches altitude 10° 05:08:12 10° 163° (SSE) 1,991 5.4 -24.8°
Maximum altitude 05:12:32 87° 79° (E) 632 2.5 -24.1°
Enters shadow 05:12:56 74° 357° (N) 655 2.5 -24.0°
